#timestamp,LO_Frequency,Hit,StdDev 
1501239615.8,286047000.2,N,2.5
1501239635.7,286047002.6,N,2.2
1501239655.5,286047002.2,N,2.0
1501239675.4,286047002.8,N,1.8
1501239695.2,286047002.6,N,1.7
1501239715.0,286047002.7,N,1.6
1501239715.9,286047002.7,N,1.5
1501239735.8,286047002.1,N,1.4
1501239755.6,286047002.0,N,1.3
1501239775.5,286047002.3,N,1.3
1501239795.3,286047001.3,N,1.3
1501239815.1,286047002.1,N,1.2
1501239835.9,286047002.5,N,1.2
1501239855.7,286047002.0,N,1.2
1501239875.5,286047001.6,N,1.1
1501239895.4,286047002.0,N,1.1
1501239915.2,286047001.9,N,1.1
1501239935.1,286047002.6,N,1.1
1501239936.0,286047002.6,N,1.0
1501239955.8,286047002.8,N,1.0
1501239975.6,286047000.2,N,1.1
1501239995.5,286046999.9,N,1.2
1501240015.3,286047002.8,N,1.1
1501240035.2,286047000.5,N,1.2
1501240055.9,286046998.4,N,1.3
1501240075.7,286047000.6,N,1.3
1501240095.6,286047001.2,N,1.3
1501240115.4,286046998.1,N,1.5
1501240135.3,286047000.7,N,1.5
1501240155.1,286046998.5,N,1.4
1501240156.0,286046998.5,N,1.4
1501240175.8,286046998.5,N,1.5
1501240195.7,286046998.9,N,1.6
1501240215.5,286046999.3,N,1.6
1501240235.4,286047000.8,N,1.5
1501240255.2,286046998.7,N,1.6
1501240275.0,286046998.9,N,1.6
1501240275.9,286046998.9,N,1.6
1501240295.8,286046998.7,N,1.6
1501240315.6,286046998.5,N,1.6
1501240335.5,286047000.3,N,1.6
1501240355.3,286046999.9,N,1.6
1501240375.1,286047001.2,N,1.5
1501240395.9,286046998.6,N,1.5
1501240415.7,286046999.2,N,1.5
1501240435.6,286046998.8,N,1.5
1501240455.4,286046998.7,N,1.4
1501240475.2,286046998.5,N,1.4
1501240495.1,286046998.6,N,1.3
1501240496.0,286046998.6,N,1.1
1501240515.8,286046997.0,N,1.2
1501240535.7,286046999.6,N,1.2
1501240555.5,286046997.2,N,1.1
1501240575.3,286046994.9,P,2.1
1501240595.2,286046998.9,N,1.9
1501240615.0,286046999.0,N,1.8
1501240615.9,286046999.0,N,1.6
1501240635.8,286046998.7,N,1.5
1501240655.6,286046997.0,N,1.5
1501240675.5,286046999.0,N,1.4
1501240695.3,286046998.9,N,1.3
1501240715.1,286046999.5,N,1.3
1501240735.9,286046999.2,N,1.3
1501240755.7,286046999.6,N,1.3
1501240775.6,286046999.2,N,1.2
1501240795.4,286046999.4,N,1.2
1501240815.2,286046999.3,N,1.2
1501240835.1,286046997.1,N,1.2
1501240836.0,286046997.1,N,1.2
1501240855.8,286046997.7,N,1.2
1501240875.6,286046997.0,N,1.2
1501240895.5,286046999.3,N,1.2
1501240915.3,286046997.9,N,1.2
1501240935.2,286046997.5,N,1.2
1501240955.9,286046996.8,N,1.2
1501240975.7,286046997.6,N,1.2
1501240995.6,286046996.4,P,0.9
1501241015.4,286046997.4,N,0.8
1501241035.3,286046994.9,P,1.3
1501241055.1,286046997.9,N,1.2
1501241056.0,286046997.9,N,1.2
1501241075.8,286046997.6,N,1.1
1501241095.7,286046997.9,N,1.0
1501241115.5,286046997.7,N,1.0
1501241135.4,286046997.3,N,0.9
1501241155.2,286046996.5,P,0.4
1501241175.0,286047000.6,N,1.8
1501241175.9,286047000.6,N,1.9
1501241195.8,286046999.8,N,1.7
1501241215.6,286047000.9,N,1.7
1501241235.5,286047000.8,N,1.7
1501241255.3,286046998.5,N,1.6
1501241275.1,286046998.9,N,1.5
1501241295.9,286046998.3,N,1.5
1501241315.7,286046998.4,N,1.4
1501241335.6,286046999.6,N,1.4
1501241385.4,286046996.7,E,nan
1501241395.3,286046998.7,N,0.0
1501241415.2,286046999.8,P,0.6
1501241435.0,286047002.7,P,1.7
1501241435.9,286047002.7,N,1.8
1501241455.8,286047000.2,N,1.6
1501241475.6,286047002.4,N,1.6
1501241495.4,286046999.8,P,0.6
1501241515.3,286046996.6,P,1.9
1501241535.1,286046998.2,N,1.7
1501241555.9,286046998.1,N,1.5
1501241575.7,286047001.1,N,1.7
1501241595.5,286047001.2,N,1.7
1501241615.4,286047001.0,N,1.7
1501241635.2,286046999.9,N,1.6
1501241655.1,286047000.0,N,1.5
1501241656.0,286047000.0,N,1.4
1501241675.8,286046999.7,N,1.4
1501241695.6,286046999.7,N,1.3
1501241715.5,286047001.9,N,1.4
1501241735.3,286046999.7,N,1.3
1501241755.2,286047002.1,N,1.4
1501241775.9,286047002.7,N,1.5
1501241795.7,286047002.3,N,1.5
1501241815.6,286047000.3,N,1.5
1501241835.4,286047000.3,N,1.5
1501241855.2,286047002.8,N,1.5
1501241875.1,286047002.6,N,1.6
1501241876.0,286047002.6,N,1.6
1501241895.8,286047000.2,N,1.6
1501241915.7,286047002.4,N,1.6
1501241935.5,286047000.1,N,1.5
1501241955.3,286047000.0,N,1.5
1501241975.2,286047000.5,N,1.5
1501241995.0,286047000.9,N,1.5
1501241995.9,286047000.9,N,1.4
1501242015.8,286047000.1,N,1.4
1501242035.6,286047002.7,N,1.5
1501242055.4,286047000.2,N,1.3
1501242075.3,286047002.1,N,1.2
1501242095.1,286047000.2,N,1.1
1501242115.9,286046999.9,N,1.1
1501242135.7,286047002.5,N,1.1
1501242155.5,286047001.6,N,1.1
1501242175.4,286047001.7,N,1.1
1501242195.2,286047003.9,P,1.4
1501242215.1,286047001.5,N,1.2
1501242216.0,286047001.5,N,1.1
1501242235.8,286047001.8,N,1.0
1501242255.6,286047001.7,N,0.9
1501242275.5,286047001.6,N,0.9
1501242295.3,286047001.8,N,0.8
1501242315.1,286047002.1,N,0.8
1501242335.9,286047002.6,P,0.4
1501242355.7,286047000.5,N,0.9
1501242375.6,286046999.7,N,1.1
1501242395.4,286046999.9,N,1.1
1501242415.2,286047001.0,N,1.0
1501242435.1,286047000.6,N,1.0
1501242436.0,286047000.6,N,0.9
1501242455.8,286047002.3,N,1.0
1501242475.7,286047000.8,N,0.9
1501242495.5,286047000.7,N,0.9
1501242515.3,286047001.0,N,0.8
1501242535.2,286047001.2,N,0.8
1501242555.0,286047000.7,N,0.8
1501242555.9,286047000.7,N,0.8
1501242575.8,286047000.4,N,0.8
1501242595.6,286047000.8,N,0.7
1501242615.4,286047000.7,N,0.7
1501242635.3,286047000.6,N,0.7
1501242655.1,286046998.7,N,0.8
1501242675.9,286046998.2,N,1.0
1501242695.7,286046998.4,N,1.1
1501242715.5,286046998.2,N,1.1
1501242735.4,286046998.6,N,1.2
1501242755.2,286046998.5,N,1.2
1501242775.0,286046998.5,N,1.2
1501242776.0,286046998.5,N,1.3
1501242795.8,286046998.2,N,1.3
1501242815.6,286047000.3,N,1.3
1501242835.5,286046999.9,N,1.2
1501242855.3,286047000.1,N,1.2
1501242875.1,286047002.6,N,1.2
1501242895.9,286047002.4,N,1.3
1501242915.7,286047002.4,N,1.3
1501242935.6,286047000.0,N,1.3
1501242955.4,286047002.6,N,1.4
1501242975.2,286047002.1,N,1.4
1501242995.1,286047002.3,N,1.5
1501242996.0,286047002.3,N,1.5
1501243015.8,286047002.2,N,1.5
1501243035.7,286047002.6,P,1.1
1501243055.5,286047002.2,N,1.0
1501243075.3,286047001.3,N,0.9
1501243095.2,286047002.0,N,0.8
1501243115.0,286047001.9,N,0.7
1501243115.9,286047001.9,P,0.1
1501243135.8,286047000.0,N,0.9
1501243155.6,286046999.9,N,0.9
1501243175.4,286047000.1,N,0.9
1501243195.3,286047001.2,N,0.8
